Starlink 1648

decayed
NORAD ID: 46533 Int'l Des: 2020-070 Owner: SPXS Country: US Constellation: starlink
LEOCIRCULAR
Vis

About Starlink 1648

Description loading...

Altitude History

Altitude vs Time

uPlot chart will show altitude changes over time

Two-Line Element Set

1 46533U 20070B 26089.30838089 .10839954 12328-4 68759-3 0 9991
2 46533 53.0282 18.7772 0005930 230.3137 129.7387 16.41067097303522
Epoch: Mar 30, 2026 • Age: 334 hours

Current Status

Position data unavailable
Launch Date Oct 6, 2020
Age 5.5 years
Decay Date Mar 30, 2026
Type internet

Technical Details

Classification Payload
Mass 260.00 kg
Dry Mass 248.00 kg
Total Mass 260.00 kg
Length 0.20 m
Diameter 2.80 m
Span 9.00 m
Shape Box + pan
Manufacturer SPXS
Bus Type Starlink
Phase Status Unknown Transfer Status
Owner/State SPXS/US

Large Constellations

Loading constellations...